Location: Zagreb
(45.8000°N, 16.0000°E)
Time: 22:34:44
(UTC+01:00)

Tiros 1 despin weight - Pass Details

Date: 31 January 2020
Orbit: 594 x 642 km, 48.2° (Epoch: 24 February)

Event Time Altitude Azimuth Distance (km) Brightness Sun altitude
Rises 15:41:53 0° 282° (WNW) 2,902 ? 10.6°
Reaches altitude 10° 15:44:57 10° 261° (W) 2,002 ? 10.2°
Maximum altitude 15:47:45 16° 224° (SW) 1,646 ? 9.8°
Drops below altitude 10° 15:50:33 10° 186° (S) 2,010 ? 9.5°
Sets 15:53:39 0° 165° (SSE) 2,920 ? 9.0°
